Location: Braunsdorf
(50.7357°N, 11.9136°E)
Time: 08:01:31
(UTC+00:00)

Cosmos 1656 Rocket - Pass Details

Date: 17 February 2020
Orbit: 794 x 848 km, 71.1° (Epoch: 31 March)

Event Time Altitude Azimuth Distance (km) Brightness Sun altitude
Rises 05:15:18 0° 328° (NNW) 3,403 6.5 -11.1°
Reaches altitude 10° 05:17:46 10° 326° (NW) 2,471 5.8 -10.7°
Maximum altitude 05:23:22 64° 246° (WSW) 935 3.7 -9.9°
Drops below altitude 10° 05:28:58 10° 166° (SSE) 2,467 6.4 -9.0°
Sets 05:31:26 0° 164° (SSE) 3,398 7.2 -8.6°
